[[{"header":{"parameterUnit":"m.s-1","parameterCategory":1,"la1":30.2991,"la2":30.254,"lo1":-89.0895,"lo2":-89.0444,"dy":0.0017,"dx":0.0017,"nx":28,"ny":28,"refTime":"2025-06-05T09:00:00:Z","depth":0,"parameterNumber":2,"parameterNumberName":"U-component_of_WINDS"},"data":[0,0,0,0,0,0,0,0,0,0,0,0,0,0,0,0,0,0,0,0,0,0,0,0,0,0,0,0,0,0,0,0,0,0,0,0,0,0,0,0,0,0,0,0,0,0,0,0,0,0,0,0,0,0,0,0,0,0,0.5455,0.5456,0,0.5508,0.5509,0.551,0.5523,0.5523,0.5523,0.5522,0.5576,0.5577,0.5579,0,0,0,0,0,0,0,0,0,0,0,0,0,0.5363,0.5364,0.5455,0.5456,0.5456,0.5508,0.5509,0.551,0.5523,0.5523,0.5523,0.5522,0.5575,0.5577,0.5579,0,0,0,0,0,0,0,0,0,0,0,0,0,0.5408,0.5365,0.5455,0.5469,0.5471,0.5508,0.5509,0.551,0.5523,0.5523,0.5522,0.5522,0.5574,0.5577,0.558,0.5605,0,0,0.5587,0.5589,0,0,0,0,0,0,0,0,0.5405,0.5411,0.5467,0.5468,0.5471,0.5509,0.5496,0.5542,0.5524,0.5504,0.5522,0.5522,0.5554,0.5558,0.5569,0.5608,0.561,0.5588,0.5589,0.559,0.5591,0,0,0,0,0,0,0,0.5402,0.5409,0.5476,0.5467,0.547,0.5473,0.5478,0.5505,0.5531,0.5505,0.5506,0.5513,0.5555,0.5566,0.557,0.5611,0.5588,0.559,0.5591,0.5593,0.5672,0.5673,0,0,0,0,0,0,0.5397,0.5407,0.5474,0.5478,0.5436,0.5475,0.5481,0.5497,0.553,0.5535,0.5513,0.5513,0.5562,0.5567,0.5572,0.5604,0.559,0.5593,0.5594,0.5672,0.5672,0.5673,0,0,0,0,0,0,0.5395,0.5403,0.5472,0.5442,0.5451,0.5477,0.5494,0.5498,0.551,0.5536,0.5541,0.552,0.5562,0.5569,0.5597,0.5606,0.5594,0.5596,0.5671,0.5672,0.5673,0.5668,0,0,0,0,0,0,0.5392,0.5402,0.5413,0.5443,0.5453,0.5496,0.5495,0.55,0.5515,0.5515,0.5544,0.5549,0.5562,0.5593,0.5599,0.5609,0.5598,0.567,0.5671,0.5672,0.5667,0.5668,0.5669,0,0,0,0,0,0.5389,0.5409,0.5413,0.5421,0.5467,0.5497,0.5503,0.5518,0.5515,0.5526,0.5542,0.5548,0.5604,0.5596,0.5603,0.5614,0.567,0.5671,0.5672,0.5667,0.5668,0.5669,0,0,0,0,0,0,0.5379,0.5413,0.5418,0.5449,0.547,0.5499,0.5513,0.5519,0.5541,0.5541,0.5559,0.5565,0.5592,0.5606,0.5596,0.564,0.5637,0.564,0.563,0.5632,0.5633,0.5629,0.56,0,0,0,0,0,0.5381,0.5403,0.5431,0.5456,0.5466,0.5488,0.5501,0.5511,0.5534,0.5542,0.5561,0.5582,0.5605,0.5619,0.5641,0.5669,0.5675,0.568,0.5681,0.5682,0.5684,0.5699,0.5702,0.5677,0.5677,0.5677,0,0,0.5384,0.5406,0.5419,0.5454,0.5472,0.5494,0.5495,0.5518,0.5534,0.5546,0.5574,0.5588,0.5612,0.5641,0.5654,0.5653,0.5692,0.5684,0.5684,0.5686,0.5701,0.5703,0.5705,0.5678,0.5678,0.5678,0,0,0.5401,0.542,0.5442,0.5459,0.5486,0.55,0.5505,0.5533,0.5543,0.5571,0.558,0.5599,0.5638,0.5654,0.5668,0.569,0.5696,0.5697,0.5702,0.5717,0.5719,0.5721,0.5728,0.573,0.5699,0.5699,0.5699,0,0.5402,0.5436,0.5452,0.5475,0.549,0.5502,0.5523,0.5539,0.5571,0.5581,0.558,0.5627,0.5645,0.5676,0.5682,0.5693,0.5698,0.5694,0.5717,0.5719,0.5721,0.5728,0.5731,0.5699,0.5699,0.5699,0.5699,0,0.5435,0.5458,0.5472,0.5503,0.552,0.5542,0.5561,0.5576,0.5584,0.5598,0.5626,0.5647,0.5673,0.5681,0.569,0.5714,0.5712,0.5714,0.5711,0.5723,0.573,0.5733,0.5699,0.5699,0.5699,0.5699,0,0,0.5448,0.5487,0.5492,0.5506,0.5535,0.5553,0.5575,0.5601,0.5613,0.5634,0.5653,0.5684,0.5686,0.5701,0.5711,0.5724,0.5739,0.5724,0.5725,0.5726,0.5767,0.5765,0.5768,0.5743,0.5744,0.5744,0.5764,0,0.5468,0.5509,0.5524,0.5557,0.5577,0.5588,0.5607,0.5627,0.564,0.566,0.5674,0.5696,0.5697,0.5706,0.5719,0.5735,0.5748,0.5734,0.576,0.5761,0.5753,0.5772,0.577,0.5788,0.5767,0.5768,0.5768,0,0.5498,0.552,0.5554,0.5581,0.559,0.5607,0.5631,0.565,0.5672,0.568,0.5697,0.5706,0.5729,0.5725,0.5755,0.5745,0.5757,0.5766,0.5767,0.577,0.5765,0.5774,0.5794,0.5797,0.5773,0.5772,0.5772,0,0.5503,0.5541,0.5567,0.5578,0.5609,0.5621,0.5634,0.5656,0.567,0.5691,0.57,0.5724,0.5736,0.5754,0.5768,0.5764,0.5798,0.5795,0.5805,0.5805,0.5811,0.5811,0.5833,0.582,0.582,0.5819,0.5819,0,0.5524,0.5544,0.5569,0.5585,0.5608,0.5625,0.5647,0.5661,0.568,0.5698,0.5709,0.5725,0.5744,0.5763,0.5775,0.5798,0.5804,0.5811,0.5814,0.581,0.5809,0.5817,0.5816,0.582,0.582,0.582,0.582,0,0.5533,0.5551,0.5579,0.5607,0.5614,0.563,0.5652,0.5668,0.5681,0.5704,0.571,0.5731,0.5754,0.577,0.5799,0.5807,0.5832,0.5835,0.5825,0.5826,0.5835,0.5834,0.5863,0.5867,0.5851,0.5852,0.5852,0,0.5545,0.5562,0.559,0.5603,0.5617,0.5638,0.5652,0.5668,0.5683,0.5709,0.5721,0.5744,0.5763,0.5799,0.5816,0.5839,0.5842,0.5851,0.5845,0.5841,0.5841,0.584,0.5841,0.5851,0.5851,0.5852,0.5852,0,0.5565,0.5572,0.5593,0.5616,0.5633,0.5653,0.5672,0.5682,0.5701,0.5717,0.574,0.5755,0.5785,0.5807,0.5831,0.5844,0.5851,0.5853,0.5857,0.5852,0.5845,0.5849,0.5826,0.5852,0.5852,0.5852,0.5852,0.5852,0.5576,0.559,0.5612,0.5635,0.5651,0.5668,0.5684,0.5699,0.5719,0.5744,0.5753,0.5776,0.5797,0.583,0.5843,0.5862,0.5861,0.5867,0.5868,0.5869,0.5868,0.5843,0.5866,0.5866,0.5866,0.5866,0.5866,0,0.5595,0.5609,0.563,0.5656,0.5674,0.5679,0.57,0.5714,0.5735,0.5754,0.5773,0.5799,0.5821,0.584,0.5862,0.5873,0.5877,0.5879,0.5878,0.5881,0.5867,0.5862,0.5875,0.5875,0.5875,0.5875,0.5875,0.5875,0.5607,0.5631,0.5641,0.5674,0.5688,0.5712,0.5723,0.5739,0.5754,0.5783,0.5801,0.5814,0.5833,0.5856,0.5876,0.5881,0.5889,0.589,0.5896,0.5883,0.5882,0.5881,0.5875,0.5892,0.5892,0.5907,0.5907,0.5907]},{"header":{"parameterUnit":"m.s-1","parameterCategory":1,"la1":30.2991,"la2":30.254,"lo1":-89.0895,"lo2":-89.0444,"dy":0.0017,"dx":0.0017,"nx":28,"ny":28,"refTime":"2025-06-05T09:00:00:Z","depth":0,"parameterNumber":3,"parameterNumberName":"V-component_of_WINDS"},"data":[0,0,0,0,0,0,0,0,0,0,0,0,0,0,0,0,0,0,0,0,0,0,0,0,0,0,0,0,0,0,0,0,0,0,0,0,0,0,0,0,0,0,0,0,0,0,0,0,0,0,0,0,0,0,0,0,0,0,4.7001,4.7001,0,4.7044,4.7045,4.7045,4.6978,4.6976,4.6974,4.6971,4.7012,4.7015,4.7018,0,0,0,0,0,0,0,0,0,0,0,0,0,4.6856,4.6859,4.7001,4.7001,4.7002,4.7044,4.7045,4.7045,4.6979,4.6976,4.6973,4.697,4.7011,4.7015,4.7019,0,0,0,0,0,0,0,0,0,0,0,0,0,4.6911,4.686,4.7001,4.6974,4.6972,4.7044,4.7045,4.7045,4.6979,4.6976,4.6972,4.6969,4.701,4.7014,4.7019,4.7119,0,0,4.7034,4.7036,0,0,0,0,0,0,0,0,4.6908,4.6916,4.6977,4.6976,4.6974,4.7002,4.7008,4.707,4.698,4.6976,4.6971,4.6967,4.7011,4.7016,4.7031,4.7121,4.7122,4.7034,4.7037,4.7039,4.7041,0,0,0,0,0,0,0,4.6904,4.6914,4.7018,4.6978,4.6976,4.6958,4.6962,4.702,4.7013,4.6976,4.6972,4.6978,4.701,4.7027,4.7032,4.7123,4.7034,4.7039,4.7042,4.7044,4.7295,4.7298,0,0,0,0,0,0,4.6904,4.6911,4.7016,4.7019,4.6932,4.6964,4.6968,4.6997,4.7012,4.7011,4.6981,4.6975,4.702,4.7026,4.7033,4.715,4.7039,4.7044,4.7047,4.7291,4.7295,4.7299,0,0,0,0,0,0,4.6901,4.6914,4.7015,4.6964,4.6975,4.697,4.7002,4.6999,4.7016,4.7015,4.7013,4.7,4.7018,4.7026,4.7098,4.715,4.7046,4.7051,4.7286,4.7292,4.7297,4.7384,0,0,0,0,0,0,4.6897,4.6914,4.6952,4.6965,4.6978,4.708,4.7006,4.7003,4.7025,4.7018,4.7033,4.7032,4.7016,4.7091,4.7103,4.7155,4.7054,4.7282,4.7289,4.7296,4.7377,4.7392,4.7406,0,0,0,0,0,4.6892,4.6974,4.6955,4.6968,4.7027,4.7083,4.7091,4.7072,4.703,4.7068,4.7067,4.7031,4.7143,4.7099,4.7112,4.7166,4.7278,4.7287,4.7295,4.737,4.7389,4.7405,0,0,0,0,0,0,4.6966,4.6975,4.6954,4.7043,4.7063,4.7072,4.7119,4.7092,4.7124,4.7115,4.7089,4.7093,4.717,4.7175,4.7126,4.7263,4.7203,4.7215,4.7256,4.7274,4.7288,4.7285,4.7058,0,0,0,0,0,4.6993,4.7039,4.7044,4.7122,4.7134,4.7125,4.7149,4.7133,4.7152,4.716,4.7164,4.7183,4.7222,4.7249,4.7285,4.7378,4.7379,4.7421,4.7436,4.7447,4.7457,4.7506,4.7524,4.7327,4.7327,4.7327,0,0,4.7048,4.7059,4.709,4.7137,4.7151,4.7198,4.7133,4.7186,4.722,4.7167,4.7235,4.724,4.7259,4.7342,4.7378,4.7348,4.7512,4.7458,4.7468,4.7471,4.7516,4.7535,4.7551,4.7333,4.7332,4.7331,0,0,4.7173,4.7187,4.7252,4.7268,4.729,4.7284,4.73,4.7314,4.7315,4.7383,4.7344,4.7384,4.7453,4.7468,4.7484,4.7616,4.7583,4.7628,4.7703,4.775,4.7766,4.7779,4.7825,4.7842,4.7638,4.7638,4.7638,0,4.7238,4.7309,4.7289,4.7345,4.7367,4.7323,4.7389,4.7404,4.7437,4.7452,4.7419,4.7503,4.7513,4.7598,4.7631,4.7646,4.7662,4.7626,4.7765,4.7779,4.7791,4.7834,4.7852,4.7643,4.7643,4.7642,4.7642,0,4.7388,4.7438,4.7488,4.7522,4.755,4.761,4.7598,4.7628,4.7609,4.7606,4.7676,4.7687,4.7724,4.7743,4.7725,4.7825,4.7806,4.777,4.7709,4.7815,4.7856,4.7872,4.7651,4.7649,4.7647,4.7646,0,0,4.7559,4.7582,4.7601,4.7616,4.7637,4.7674,4.7733,4.777,4.7796,4.782,4.7867,4.7926,4.7892,4.7911,4.7895,4.7937,4.8039,4.7895,4.7895,4.792,4.8149,4.8175,4.8195,4.8018,4.8021,4.8024,4.8147,0,4.7683,4.7785,4.7769,4.7866,4.7912,4.7871,4.7921,4.7939,4.7938,4.7975,4.7973,4.8015,4.7968,4.7979,4.8019,4.8018,4.8084,4.8009,4.806,4.8062,4.8055,4.8216,4.8244,4.836,4.8162,4.8165,4.8167,0,4.7841,4.7872,4.7975,4.7989,4.8007,4.8053,4.8086,4.8122,4.8141,4.8137,4.8159,4.8135,4.8191,4.8132,4.8208,4.8158,4.8178,4.818,4.8184,4.8187,4.812,4.8222,4.8397,4.8414,4.8192,4.819,4.8188,0,4.7954,4.8022,4.8092,4.8105,4.8124,4.8157,4.8166,4.8182,4.8206,4.8234,4.8249,4.8283,4.8302,4.8328,4.8313,4.8271,4.8393,4.8331,4.839,4.839,4.8416,4.8414,4.8595,4.8431,4.8431,4.843,4.843,0,4.8093,4.8157,4.8143,4.8186,4.8256,4.8236,4.8306,4.831,4.8325,4.8366,4.8333,4.8373,4.8351,4.8389,4.8378,4.8443,4.8451,4.8449,4.8445,4.8451,4.8451,4.8463,4.8454,4.8435,4.8434,4.8433,4.8432,0,4.8231,4.8224,4.8298,4.831,4.8314,4.8366,4.8375,4.8414,4.8411,4.8465,4.8476,4.847,4.8513,4.8501,4.8547,4.8539,4.8621,4.8607,4.8615,4.8611,4.867,4.8664,4.8863,4.8888,4.8709,4.8711,4.8712,0,4.832,4.8368,4.8386,4.8412,4.8424,4.8467,4.8492,4.8474,4.85,4.8526,4.8562,4.8602,4.8633,4.8703,4.8702,4.8737,4.8723,4.8791,4.8728,4.8733,4.8723,4.872,4.8724,4.8803,4.8805,4.8807,4.8808,0,4.8477,4.8472,4.8509,4.8545,4.8575,4.8602,4.8626,4.8649,4.8633,4.8664,4.8708,4.8733,4.878,4.882,4.8852,4.8859,4.8831,4.8828,4.8843,4.8849,4.8851,4.885,4.8648,4.8823,4.8821,4.882,4.882,4.8819,4.8593,4.8634,4.8653,4.8695,4.8711,4.8734,4.8772,4.8774,4.8811,4.8849,4.8836,4.8886,4.8903,4.8944,4.8956,4.8994,4.8968,4.899,4.8995,4.9001,4.9008,4.8847,4.8999,4.8999,4.8998,4.8998,4.8998,0,4.8747,4.8758,4.8797,4.8832,4.8865,4.8837,4.8862,4.8891,4.8936,4.8955,4.8987,4.9037,4.9076,4.9078,4.9114,4.9144,4.9132,4.9154,4.9151,4.9153,4.9029,4.9012,4.9163,4.9163,4.9163,4.9163,4.9163,4.9163,4.8832,4.89,4.8896,4.8972,4.8981,4.9031,4.9048,4.9068,4.9083,4.9142,4.9174,4.9176,4.9188,4.9225,4.9258,4.9258,4.9272,4.9299,4.9294,4.9178,4.9161,4.9146,4.9129,4.9303,4.9303,4.9414,4.9415,4.9416]}]]